iso_date,Year,Hour,Min,DOY,POS_DOY,Lat,Lon,BP,Ts,Ta,has_bp,has_ts,has_ta,BuoyID,Buoy_Type,Buoy_Owner,Logistics,Hemisphere
2022-04-03T06:00:25Z,2022,6,0,93.2503,93.2503,71.32561,-156.67937,1015.9,0.3,-999.0,yes,yes,no,300534061750350,Ice Ball,USIABP,UTQ_2022,North
2022-04-03T07:00:28Z,2022,7,0,93.292,93.292,71.32562,-156.67922,1015.7,-11.2,-999.0,yes,yes,no,300534061750350,Ice Ball,USIABP,UTQ_2022,North
2022-04-03T08:00:57Z,2022,8,0,93.334,93.334,71.32561,-156.67928,1015.7,-14.15,-999.0,yes,yes,no,300534061750350,Ice Ball,USIABP,UTQ_2022,North
2022-04-03T09:00:25Z,2022,9,0,93.3753,93.3753,71.32561,-156.67932,1015.3,-14.95,-999.0,yes,yes,no,300534061750350,Ice Ball,USIABP,UTQ_2022,North
2022-04-03T10:00:28Z,2022,10,0,93.417,93.417,71.32559,-156.67926,1015.2,-15.1,-999.0,yes,yes,no,300534061750350,Ice Ball,USIABP,UTQ_2022,North
2022-04-03T11:00:31Z,2022,11,0,93.4587,93.4587,71.3263,-156.68018,1015.1,-15.1,-999.0,yes,yes,no,300534061750350,Ice Ball,USIABP,UTQ_2022,North
2022-04-03T12:00:51Z,2022,12,0,93.5006,93.5006,71.3256,-156.67935,1015.0,-15.25,-999.0,yes,yes,no,300534061750350,Ice Ball,USIABP,UTQ_2022,North
2022-04-03T13:00:28Z,2022,13,0,93.542,93.542,71.3256,-156.67929,1014.7,-15.45,-999.0,yes,yes,no,300534061750350,Ice Ball,USIABP,UTQ_2022,North
2022-04-03T14:00:23Z,2022,14,0,93.5836,93.5836,71.32562,-156.67929,1014.7,-15.7,-999.0,yes,yes,no,300534061750350,Ice Ball,USIABP,UTQ_2022,North
2022-04-03T15:00:51Z,2022,15,0,93.6256,93.6256,71.32558,-156.67929,1014.4,-15.9,-999.0,yes,yes,no,300534061750350,Ice Ball,USIABP,UTQ_2022,North
2022-04-03T16:00:28Z,2022,16,0,93.667,93.667,71.3256,-156.67928,1014.3,-16.0,-999.0,yes,yes,no,300534061750350,Ice Ball,USIABP,UTQ_2022,North
2022-04-03T17:00:23Z,2022,17,0,93.7086,93.7086,71.32561,-156.67923,1014.5,-16.4,-999.0,yes,yes,no,300534061750350,Ice Ball,USIABP,UTQ_2022,North
2022-04-03T18:00:51Z,2022,18,0,93.7506,93.7506,71.3256,-156.6793,1014.4,-16.9,-999.0,yes,yes,no,300534061750350,Ice Ball,USIABP,UTQ_2022,North
2022-04-03T19:00:28Z,2022,19,0,93.792,93.792,71.3256,-156.67934,1014.4,-18.85,-999.0,yes,yes,no,300534061750350,Ice Ball,USIABP,UTQ_2022,North
2022-04-03T20:00:23Z,2022,20,0,93.8336,93.8336,71.3256,-156.67927,1014.5,-20.05,-999.0,yes,yes,no,300534061750350,Ice Ball,USIABP,UTQ_2022,North
2022-04-03T21:00:51Z,2022,21,0,93.8756,93.8756,71.28815,-156.75395,1013.5,-11.85,-999.0,yes,yes,no,300534061750350,Ice Ball,USIABP,UTQ_2022,North
2022-04-03T22:00:28Z,2022,22,0,93.917,93.917,71.28777,-156.75418,1013.0,7.65,-999.0,yes,yes,no,300534061750350,Ice Ball,USIABP,UTQ_2022,North
2022-04-03T23:00:31Z,2022,23,0,93.9587,93.9587,71.96223,-155.451,989.6,13.65,-999.0,yes,yes,no,300534061750350,Ice Ball,USIABP,UTQ_2022,North
2022-04-04T00:01:00Z,2022,0,1,94.0007,94.0007,72.53279,-154.26548,1015.4,13.95,-999.0,yes,yes,no,300534061750350,Ice Ball,USIABP,UTQ_2022,North
2022-04-04T01:00:28Z,2022,1,0,94.042,94.042,72.41301,-154.64508,1015.1,-17.65,-999.0,yes,yes,no,300534061750350,Ice Ball,USIABP,UTQ_2022,North
2022-04-04T02:00:57Z,2022,2,0,94.084,94.084,72.41102,-154.66844,1014.8,-19.15,-999.0,yes,yes,no,300534061750350,Ice Ball,USIABP,UTQ_2022,North
2022-04-04T03:00:25Z,2022,3,0,94.1253,94.1253,72.40915,-154.69064,1014.3,-19.35,-999.0,yes,yes,no,300534061750350,Ice Ball,USIABP,UTQ_2022,North
2022-04-04T04:00:28Z,2022,4,0,94.167,94.167,72.40733,-154.71118,1014.3,-19.7,-999.0,yes,yes,no,300534061750350,Ice Ball,USIABP,UTQ_2022,North
2022-04-04T05:00:23Z,2022,5,0,94.2086,94.2086,72.40561,-154.73014,1013.9,-20.6,-999.0,yes,yes,no,300534061750350,Ice Ball,USIABP,UTQ_2022,North
2022-04-04T06:00:51Z,2022,6,0,94.2506,94.2506,72.40389,-154.74743,1013.6,-20.65,-999.0,yes,yes,no,300534061750350,Ice Ball,USIABP,UTQ_2022,North
2022-04-04T07:00:28Z,2022,7,0,94.292,94.292,72.40212,-154.76246,1013.4,-20.45,-999.0,yes,yes,no,300534061750350,Ice Ball,USIABP,UTQ_2022,North
2022-04-04T08:00:23Z,2022,8,0,94.3336,94.3336,72.40008,-154.77592,1013.0,-21.25,-999.0,yes,yes,no,300534061750350,Ice Ball,USIABP,UTQ_2022,North
2022-04-04T09:00:25Z,2022,9,0,94.3753,94.3753,72.39746,-154.78893,1012.4,-21.55,-999.0,yes,yes,no,300534061750350,Ice Ball,USIABP,UTQ_2022,North
2022-04-04T10:00:54Z,2022,10,0,94.4173,94.4173,72.39419,-154.80247,1011.7,-20.9,-999.0,yes,yes,no,300534061750350,Ice Ball,USIABP,UTQ_2022,North
2022-04-04T11:00:23Z,2022,11,0,94.4586,94.4586,72.39073,-154.81607,1010.9,-21.1,-999.0,yes,yes,no,300534061750350,Ice Ball,USIABP,UTQ_2022,North
2022-04-04T12:00:25Z,2022,12,0,94.5003,94.5003,72.38709,-154.83009,1010.2,-21.75,-999.0,yes,yes,no,300534061750350,Ice Ball,USIABP,UTQ_2022,North
2022-04-04T13:00:54Z,2022,13,0,94.5423,94.5423,72.38333,-154.84404,1009.4,-22.4,-999.0,yes,yes,no,300534061750350,Ice Ball,USIABP,UTQ_2022,North
2022-04-04T14:00:23Z,2022,14,0,94.5836,94.5836,72.37956,-154.85792,1008.4,-22.45,-999.0,yes,yes,no,300534061750350,Ice Ball,USIABP,UTQ_2022,North
2022-04-04T15:00:25Z,2022,15,0,94.6253,94.6253,72.37566,-154.87221,1007.8,-23.1,-999.0,yes,yes,no,300534061750350,Ice Ball,USIABP,UTQ_2022,North
2022-04-04T16:00:54Z,2022,16,0,94.6673,94.6673,72.37153,-154.8862,1007.1,-23.15,-999.0,yes,yes,no,300534061750350,Ice Ball,USIABP,UTQ_2022,North
2022-04-04T17:00:23Z,2022,17,0,94.7086,94.7086,72.3673,-154.8997,1006.6,-22.85,-999.0,yes,yes,no,300534061750350,Ice Ball,USIABP,UTQ_2022,North
2022-04-04T18:00:25Z,2022,18,0,94.7503,94.7503,72.36279,-154.91274,1006.1,-22.25,-999.0,yes,yes,no,300534061750350,Ice Ball,USIABP,UTQ_2022,North
2022-04-04T19:00:28Z,2022,19,0,94.792,94.792,72.35771,-154.9251,1005.6,-21.95,-999.0,yes,yes,no,300534061750350,Ice Ball,USIABP,UTQ_2022,North
2022-04-04T20:00:57Z,2022,20,0,94.834,94.834,72.35223,-154.93711,1005.3,-20.9,-999.0,yes,yes,no,300534061750350,Ice Ball,USIABP,UTQ_2022,North
2022-04-04T21:00:25Z,2022,21,0,94.8753,94.8753,72.34637,-154.94993,1005.1,-20.45,-999.0,yes,yes,no,300534061750350,Ice Ball,USIABP,UTQ_2022,North
2022-04-04T22:00:28Z,2022,22,0,94.917,94.917,72.34022,-154.96418,1004.9,-20.4,-999.0,yes,yes,no,300534061750350,Ice Ball,USIABP,UTQ_2022,North
2022-04-04T23:00:23Z,2022,23,0,94.9586,94.9586,72.334,-154.97914,1004.6,-21.15,-999.0,yes,yes,no,300534061750350,Ice Ball,USIABP,UTQ_2022,North
2022-04-05T00:00:51Z,2022,0,0,95.0006,95.0006,72.32814,-154.99418,1004.4,-21.3,-999.0,yes,yes,no,300534061750350,Ice Ball,USIABP,UTQ_2022,North
2022-04-05T01:00:28Z,2022,1,0,95.042,95.042,72.32292,-155.00808,1004.1,-21.4,-999.0,yes,yes,no,300534061750350,Ice Ball,USIABP,UTQ_2022,North
2022-04-05T02:00:23Z,2022,2,0,95.0836,95.0836,72.31854,-155.02131,1003.8,-21.55,-999.0,yes,yes,no,300534061750350,Ice Ball,USIABP,UTQ_2022,North
2022-04-05T03:00:25Z,2022,3,0,95.1253,95.1253,72.31488,-155.03317,1003.5,-21.9,-999.0,yes,yes,no,300534061750350,Ice Ball,USIABP,UTQ_2022,North
2022-04-05T04:00:54Z,2022,4,0,95.1673,95.1673,72.31205,-155.04341,1003.4,-22.3,-999.0,yes,yes,no,300534061750350,Ice Ball,USIABP,UTQ_2022,North
2022-04-05T05:00:23Z,2022,5,0,95.2086,95.2086,72.30993,-155.05193,1003.3,-23.0,-999.0,yes,yes,no,300534061750350,Ice Ball,USIABP,UTQ_2022,North
2022-04-05T06:00:25Z,2022,6,0,95.2503,95.2503,72.30824,-155.06041,1003.0,-23.75,-999.0,yes,yes,no,300534061750350,Ice Ball,USIABP,UTQ_2022,North
2022-04-05T07:00:28Z,2022,7,0,95.292,95.292,72.30654,-155.06632,1002.9,-24.15,-999.0,yes,yes,no,300534061750350,Ice Ball,USIABP,UTQ_2022,North
2022-04-05T08:00:57Z,2022,8,0,95.334,95.334,72.30404,-155.07079,1002.7,-24.65,-999.0,yes,yes,no,300534061750350,Ice Ball,USIABP,UTQ_2022,North
2022-04-05T09:00:25Z,2022,9,0,95.3753,95.3753,72.30163,-155.07467,1002.6,-25.4,-999.0,yes,yes,no,300534061750350,Ice Ball,USIABP,UTQ_2022,North
2022-04-05T10:00:28Z,2022,10,0,95.417,95.417,72.29921,-155.07778,1002.4,-25.2,-999.0,yes,yes,no,300534061750350,Ice Ball,USIABP,UTQ_2022,North
2022-04-05T11:00:23Z,2022,11,0,95.4586,95.4586,72.29683,-155.08097,1002.2,-25.55,-999.0,yes,yes,no,300534061750350,Ice Ball,USIABP,UTQ_2022,North
2022-04-05T12:00:51Z,2022,12,0,95.5006,95.5006,72.29465,-155.08451,1002.0,-26.0,-999.0,yes,yes,no,300534061750350,Ice Ball,USIABP,UTQ_2022,North
2022-04-05T13:00:28Z,2022,13,0,95.542,95.542,72.29285,-155.0885,1001.9,-26.65,-999.0,yes,yes,no,300534061750350,Ice Ball,USIABP,UTQ_2022,North
2022-04-05T14:00:23Z,2022,14,0,95.5836,95.5836,72.29144,-155.09244,1002.0,-27.05,-999.0,yes,yes,no,300534061750350,Ice Ball,USIABP,UTQ_2022,North
2022-04-05T15:00:51Z,2022,15,0,95.6256,95.6256,72.29045,-155.09645,1002.1,-27.55,-999.0,yes,yes,no,300534061750350,Ice Ball,USIABP,UTQ_2022,North
2022-04-05T16:00:28Z,2022,16,0,95.667,95.667,72.28997,-155.09957,1002.3,-26.65,-999.0,yes,yes,no,300534061750350,Ice Ball,USIABP,UTQ_2022,North
2022-04-05T17:00:23Z,2022,17,0,95.7086,95.7086,72.28943,-155.1025,1002.5,-24.75,-999.0,yes,yes,no,300534061750350,Ice Ball,USIABP,UTQ_2022,North
2022-04-05T18:00:51Z,2022,18,0,95.7506,95.7506,72.28838,-155.10619,1002.8,-21.8,-999.0,yes,yes,no,300534061750350,Ice Ball,USIABP,UTQ_2022,North
2022-04-05T19:00:28Z,2022,19,0,95.792,95.792,72.28746,-155.11004,1003.2,-21.1,-999.0,yes,yes,no,300534061750350,Ice Ball,USIABP,UTQ_2022,North
2022-04-05T20:00:23Z,2022,20,0,95.8336,95.8336,72.28678,-155.11333,1003.8,-16.7,-999.0,yes,yes,no,300534061750350,Ice Ball,USIABP,UTQ_2022,North
2022-04-05T21:00:51Z,2022,21,0,95.8756,95.8756,72.28681,-155.11801,1004.3,-16.35,-999.0,yes,yes,no,300534061750350,Ice Ball,USIABP,UTQ_2022,North
2022-04-05T22:00:28Z,2022,22,0,95.917,95.917,72.28726,-155.12208,1005.0,-16.75,-999.0,yes,yes,no,300534061750350,Ice Ball,USIABP,UTQ_2022,North
2022-04-05T23:00:23Z,2022,23,0,95.9586,95.9586,72.28739,-155.12731,1005.6,-19.05,-999.0,yes,yes,no,300534061750350,Ice Ball,USIABP,UTQ_2022,North
2022-04-06T00:00:51Z,2022,0,0,96.0006,96.0006,72.28862,-155.13223,1006.2,-19.55,-999.0,yes,yes,no,300534061750350,Ice Ball,USIABP,UTQ_2022,North
2022-04-06T01:00:28Z,2022,1,0,96.042,96.042,72.29021,-155.13724,1006.7,-20.4,-999.0,yes,yes,no,300534061750350,Ice Ball,USIABP,UTQ_2022,North
2022-04-06T02:00:23Z,2022,2,0,96.0836,96.0836,72.29221,-155.14197,1007.4,-21.05,-999.0,yes,yes,no,300534061750350,Ice Ball,USIABP,UTQ_2022,North
2022-04-06T03:00:25Z,2022,3,0,96.1253,96.1253,72.29454,-155.14743,1007.8,-21.35,-999.0,yes,yes,no,300534061750350,Ice Ball,USIABP,UTQ_2022,North
2022-04-06T04:00:54Z,2022,4,0,96.1673,96.1673,72.29704,-155.15386,1008.5,-22.05,-999.0,yes,yes,no,300534061750350,Ice Ball,USIABP,UTQ_2022,North
2022-04-06T05:00:23Z,2022,5,0,96.2086,96.2086,72.29917,-155.15882,1009.3,-22.15,-999.0,yes,yes,no,300534061750350,Ice Ball,USIABP,UTQ_2022,North
2022-04-06T06:00:25Z,2022,6,0,96.2503,96.2503,72.3012,-155.16241,1010.5,-23.5,-999.0,yes,yes,no,300534061750350,Ice Ball,USIABP,UTQ_2022,North
2022-04-06T07:00:28Z,2022,7,0,96.292,96.292,72.30276,-155.16497,1011.2,-24.55,-999.0,yes,yes,no,300534061750350,Ice Ball,USIABP,UTQ_2022,North
2022-04-06T08:00:57Z,2022,8,0,96.334,96.334,72.30339,-155.16716,1011.9,-25.7,-999.0,yes,yes,no,300534061750350,Ice Ball,USIABP,UTQ_2022,North
2022-04-06T09:00:25Z,2022,9,0,96.3753,96.3753,72.30363,-155.16866,1012.7,-25.95,-999.0,yes,yes,no,300534061750350,Ice Ball,USIABP,UTQ_2022,North
2022-04-06T10:00:28Z,2022,10,0,96.417,96.417,72.30378,-155.17038,1013.3,-26.8,-999.0,yes,yes,no,300534061750350,Ice Ball,USIABP,UTQ_2022,North
2022-04-06T11:00:23Z,2022,11,0,96.4586,96.4586,72.30393,-155.17229,1014.0,-27.15,-999.0,yes,yes,no,300534061750350,Ice Ball,USIABP,UTQ_2022,North
2022-04-06T12:00:51Z,2022,12,0,96.5006,96.5006,72.30414,-155.17487,1014.2,-27.2,-999.0,yes,yes,no,300534061750350,Ice Ball,USIABP,UTQ_2022,North
2022-04-06T13:00:28Z,2022,13,0,96.542,96.542,72.30472,-155.17849,1014.7,-27.45,-999.0,yes,yes,no,300534061750350,Ice Ball,USIABP,UTQ_2022,North
2022-04-06T14:00:23Z,2022,14,0,96.5836,96.5836,72.3055,-155.18235,1015.0,-27.25,-999.0,yes,yes,no,300534061750350,Ice Ball,USIABP,UTQ_2022,North
2022-04-06T15:00:51Z,2022,15,0,96.6256,96.6256,72.30618,-155.18573,1015.4,-27.55,-999.0,yes,yes,no,300534061750350,Ice Ball,USIABP,UTQ_2022,North
2022-04-06T16:00:28Z,2022,16,0,96.667,96.667,72.30716,-155.18993,1015.8,-26.5,-999.0,yes,yes,no,300534061750350,Ice Ball,USIABP,UTQ_2022,North
2022-04-06T17:00:23Z,2022,17,0,96.7086,96.7086,72.30763,-155.19867,1015.9,-24.4,-999.0,yes,yes,no,300534061750350,Ice Ball,USIABP,UTQ_2022,North
2022-04-06T18:00:51Z,2022,18,0,96.7506,96.7506,72.30801,-155.20738,1016.0,-22.75,-999.0,yes,yes,no,300534061750350,Ice Ball,USIABP,UTQ_2022,North
2022-04-06T19:00:28Z,2022,19,0,96.792,96.792,72.30771,-155.21728,1016.2,-21.0,-999.0,yes,yes,no,300534061750350,Ice Ball,USIABP,UTQ_2022,North
2022-04-06T20:00:23Z,2022,20,0,96.8336,96.8336,72.30736,-155.22698,1016.2,-19.6,-999.0,yes,yes,no,300534061750350,Ice Ball,USIABP,UTQ_2022,North
2022-04-06T21:00:25Z,2022,21,0,96.8753,96.8753,72.30696,-155.23631,1016.6,-18.6,-999.0,yes,yes,no,300534061750350,Ice Ball,USIABP,UTQ_2022,North
2022-04-06T22:00:54Z,2022,22,0,96.9173,96.9173,72.30664,-155.24625,1016.6,-18.3,-999.0,yes,yes,no,300534061750350,Ice Ball,USIABP,UTQ_2022,North
2022-04-06T23:00:23Z,2022,23,0,96.9586,96.9586,72.30673,-155.25522,1016.6,-18.45,-999.0,yes,yes,no,300534061750350,Ice Ball,USIABP,UTQ_2022,North
2022-04-07T00:00:25Z,2022,0,0,97.0003,97.0003,72.30697,-155.26547,1016.6,-19.55,-999.0,yes,yes,no,300534061750350,Ice Ball,USIABP,UTQ_2022,North
2022-04-07T01:00:28Z,2022,1,0,97.042,97.042,72.30742,-155.27672,1016.4,-20.2,-999.0,yes,yes,no,300534061750350,Ice Ball,USIABP,UTQ_2022,North
2022-04-07T02:00:57Z,2022,2,0,97.084,97.084,72.30794,-155.2894,1016.5,-20.65,-999.0,yes,yes,no,300534061750350,Ice Ball,USIABP,UTQ_2022,North
2022-04-07T03:00:25Z,2022,3,0,97.1253,97.1253,72.30864,-155.30172,1016.3,-21.1,-999.0,yes,yes,no,300534061750350,Ice Ball,USIABP,UTQ_2022,North
2022-04-07T04:00:28Z,2022,4,0,97.167,97.167,72.30912,-155.31388,1016.2,-21.45,-999.0,yes,yes,no,300534061750350,Ice Ball,USIABP,UTQ_2022,North
2022-04-07T05:00:23Z,2022,5,0,97.2086,97.2086,72.30907,-155.32621,1016.1,-21.75,-999.0,yes,yes,no,300534061750350,Ice Ball,USIABP,UTQ_2022,North
2022-04-07T06:00:51Z,2022,6,0,97.2506,97.2506,72.30827,-155.33964,1015.7,-22.0,-999.0,yes,yes,no,300534061750350,Ice Ball,USIABP,UTQ_2022,North
2022-04-07T07:00:28Z,2022,7,0,97.292,97.292,72.30751,-155.35394,1015.3,-21.65,-999.0,yes,yes,no,300534061750350,Ice Ball,USIABP,UTQ_2022,North
2022-04-07T08:00:23Z,2022,8,0,97.3336,97.3336,72.30662,-155.37213,1015.2,-21.4,-999.0,yes,yes,no,300534061750350,Ice Ball,USIABP,UTQ_2022,North
2022-04-07T09:00:51Z,2022,9,0,97.3756,97.3756,72.30461,-155.39248,1015.0,-21.0,-999.0,yes,yes,no,300534061750350,Ice Ball,USIABP,UTQ_2022,North
2022-04-07T10:00:28Z,2022,10,0,97.417,97.417,72.30287,-155.40859,1015.2,-20.85,-999.0,yes,yes,no,300534061750350,Ice Ball,USIABP,UTQ_2022,North
2022-04-07T11:00:23Z,2022,11,0,97.4586,97.4586,72.30123,-155.42351,1014.6,-21.4,-999.0,yes,yes,no,300534061750350,Ice Ball,USIABP,UTQ_2022,North
2022-04-07T12:00:51Z,2022,12,0,97.5006,97.5006,72.29974,-155.43896,1014.0,-21.4,-999.0,yes,yes,no,300534061750350,Ice Ball,USIABP,UTQ_2022,North
2022-04-07T13:00:28Z,2022,13,0,97.542,97.542,72.29836,-155.45294,1013.2,-20.8,-999.0,yes,yes,no,300534061750350,Ice Ball,USIABP,UTQ_2022,North
2022-04-07T14:00:23Z,2022,14,0,97.5836,97.5836,72.29729,-155.46542,1013.2,-19.65,-999.0,yes,yes,no,300534061750350,Ice Ball,USIABP,UTQ_2022,North
2022-04-07T15:00:51Z,2022,15,0,97.6256,97.6256,72.29682,-155.47665,1013.0,-19.0,-999.0,yes,yes,no,300534061750350,Ice Ball,USIABP,UTQ_2022,North
2022-04-07T16:00:28Z,2022,16,0,97.667,97.667,72.29654,-155.48667,1012.8,-18.1,-999.0,yes,yes,no,300534061750350,Ice Ball,USIABP,UTQ_2022,North
2022-04-07T17:00:23Z,2022,17,0,97.7086,97.7086,72.29642,-155.49635,1012.9,-17.05,-999.0,yes,yes,no,300534061750350,Ice Ball,USIABP,UTQ_2022,North
2022-04-07T18:00:51Z,2022,18,0,97.7506,97.7506,72.29666,-155.50448,1013.3,-16.55,-999.0,yes,yes,no,300534061750350,Ice Ball,USIABP,UTQ_2022,North
2022-04-07T19:00:28Z,2022,19,0,97.792,97.792,72.29697,-155.51101,1013.5,-14.9,-999.0,yes,yes,no,300534061750350,Ice Ball,USIABP,UTQ_2022,North
2022-04-07T20:00:23Z,2022,20,0,97.8336,97.8336,72.29758,-155.51705,1013.6,-13.45,-999.0,yes,yes,no,300534061750350,Ice Ball,USIABP,UTQ_2022,North
2022-04-07T21:00:25Z,2022,21,0,97.8753,97.8753,72.29836,-155.52252,1013.8,-13.25,-999.0,yes,yes,no,300534061750350,Ice Ball,USIABP,UTQ_2022,North
2022-04-07T22:00:54Z,2022,22,0,97.9173,97.9173,72.2994,-155.5286,1014.1,-11.35,-999.0,yes,yes,no,300534061750350,Ice Ball,USIABP,UTQ_2022,North
2022-04-07T23:00:23Z,2022,23,0,97.9586,97.9586,72.30022,-155.53313,1014.5,-10.8,-999.0,yes,yes,no,300534061750350,Ice Ball,USIABP,UTQ_2022,North
2022-04-08T00:00:25Z,2022,0,0,98.0003,98.0003,72.30119,-155.53915,1014.5,-11.0,-999.0,yes,yes,no,300534061750350,Ice Ball,USIABP,UTQ_2022,North
2022-04-08T01:00:28Z,2022,1,0,98.042,98.042,72.30213,-155.54633,1014.2,-11.75,-999.0,yes,yes,no,300534061750350,Ice Ball,USIABP,UTQ_2022,North
2022-04-08T02:00:57Z,2022,2,0,98.084,98.084,72.30292,-155.55431,1014.0,-13.75,-999.0,yes,yes,no,300534061750350,Ice Ball,USIABP,UTQ_2022,North
2022-04-08T03:00:25Z,2022,3,0,98.1253,98.1253,72.30358,-155.56466,1014.0,-14.3,-999.0,yes,yes,no,300534061750350,Ice Ball,USIABP,UTQ_2022,North
2022-04-08T04:00:28Z,2022,4,0,98.167,98.167,72.30419,-155.57607,1013.7,-15.55,-999.0,yes,yes,no,300534061750350,Ice Ball,USIABP,UTQ_2022,North
2022-04-08T05:00:23Z,2022,5,0,98.2086,98.2086,72.30471,-155.58989,1013.5,-15.7,-999.0,yes,yes,no,300534061750350,Ice Ball,USIABP,UTQ_2022,North
2022-04-08T06:00:51Z,2022,6,0,98.2506,98.2506,72.30476,-155.60406,1013.1,-15.7,-999.0,yes,yes,no,300534061750350,Ice Ball,USIABP,UTQ_2022,North
2022-04-08T07:00:28Z,2022,7,0,98.292,98.292,72.30447,-155.61711,1013.0,-16.3,-999.0,yes,yes,no,300534061750350,Ice Ball,USIABP,UTQ_2022,North
2022-04-08T08:00:23Z,2022,8,0,98.3336,98.3336,72.30425,-155.62927,1012.7,-16.65,-999.0,yes,yes,no,300534061750350,Ice Ball,USIABP,UTQ_2022,North
2022-04-08T09:00:51Z,2022,9,0,98.3756,98.3756,72.30428,-155.63936,1012.6,-16.8,-999.0,yes,yes,no,300534061750350,Ice Ball,USIABP,UTQ_2022,North
2022-04-08T10:00:28Z,2022,10,0,98.417,98.417,72.30421,-155.65021,1012.2,-16.85,-999.0,yes,yes,no,300534061750350,Ice Ball,USIABP,UTQ_2022,North
2022-04-08T11:00:23Z,2022,11,0,98.4586,98.4586,72.30433,-155.65922,1012.9,-17.15,-999.0,yes,yes,no,300534061750350,Ice Ball,USIABP,UTQ_2022,North
2022-04-08T12:00:51Z,2022,12,0,98.5006,98.5006,72.30464,-155.66754,1012.7,-17.35,-999.0,yes,yes,no,300534061750350,Ice Ball,USIABP,UTQ_2022,North
2022-04-08T13:00:28Z,2022,13,0,98.542,98.542,72.30492,-155.67555,1012.8,-17.2,-999.0,yes,yes,no,300534061750350,Ice Ball,USIABP,UTQ_2022,North
2022-04-08T14:00:23Z,2022,14,0,98.5836,98.5836,72.30531,-155.68432,1013.1,-17.25,-999.0,yes,yes,no,300534061750350,Ice Ball,USIABP,UTQ_2022,North
2022-04-08T15:00:25Z,2022,15,0,98.6253,98.6253,72.3062,-155.69315,1013.7,-16.95,-999.0,yes,yes,no,300534061750350,Ice Ball,USIABP,UTQ_2022,North
2022-04-08T16:00:54Z,2022,16,0,98.6673,98.6673,72.30757,-155.69917,1014.2,-16.25,-999.0,yes,yes,no,300534061750350,Ice Ball,USIABP,UTQ_2022,North
2022-04-08T17:00:23Z,2022,17,0,98.7086,98.7086,72.30914,-155.70118,1014.6,-15.65,-999.0,yes,yes,no,300534061750350,Ice Ball,USIABP,UTQ_2022,North
2022-04-08T18:00:25Z,2022,18,0,98.7503,98.7503,72.31089,-155.70079,1015.1,-15.1,-999.0,yes,yes,no,300534061750350,Ice Ball,USIABP,UTQ_2022,North
2022-04-08T19:00:28Z,2022,19,0,98.792,98.792,72.31245,-155.6989,1015.8,-14.7,-999.0,yes,yes,no,300534061750350,Ice Ball,USIABP,UTQ_2022,North
2022-04-08T20:00:57Z,2022,20,0,98.834,98.834,72.31401,-155.69396,1016.9,-14.45,-999.0,yes,yes,no,300534061750350,Ice Ball,USIABP,UTQ_2022,North
2022-04-08T21:00:25Z,2022,21,0,98.8753,98.8753,72.31485,-155.68572,1018.0,-14.35,-999.0,yes,yes,no,300534061750350,Ice Ball,USIABP,UTQ_2022,North
2022-04-08T22:00:28Z,2022,22,0,98.917,98.917,72.31489,-155.67056,1018.8,-14.1,-999.0,yes,yes,no,300534061750350,Ice Ball,USIABP,UTQ_2022,North
2022-04-08T23:00:23Z,2022,23,0,98.9586,98.9586,72.31452,-155.65338,1019.6,-14.3,-999.0,yes,yes,no,300534061750350,Ice Ball,USIABP,UTQ_2022,North
2022-04-09T00:00:51Z,2022,0,0,99.0006,99.0006,72.31393,-155.63461,1020.8,-14.35,-999.0,yes,yes,no,300534061750350,Ice Ball,USIABP,UTQ_2022,North
2022-04-09T01:00:28Z,2022,1,0,99.042,99.042,72.31356,-155.61688,1021.7,-14.0,-999.0,yes,yes,no,300534061750350,Ice Ball,USIABP,UTQ_2022,North
2022-04-09T02:00:23Z,2022,2,0,99.0836,99.0836,72.3134,-155.60115,1022.6,-14.15,-999.0,yes,yes,no,300534061750350,Ice Ball,USIABP,UTQ_2022,North
2022-04-09T03:00:25Z,2022,3,0,99.1253,99.1253,72.31306,-155.58781,1023.5,-14.4,-999.0,yes,yes,no,300534061750350,Ice Ball,USIABP,UTQ_2022,North
2022-04-09T04:00:54Z,2022,4,0,99.1673,99.1673,72.31359,-155.57471,1024.2,-15.3,-999.0,yes,yes,no,300534061750350,Ice Ball,USIABP,UTQ_2022,North
2022-04-09T05:00:23Z,2022,5,0,99.2086,99.2086,72.31335,-155.56446,1025.0,-16.05,-999.0,yes,yes,no,300534061750350,Ice Ball,USIABP,UTQ_2022,North
2022-04-09T06:00:25Z,2022,6,0,99.2503,99.2503,72.31342,-155.5553,1025.7,-16.75,-999.0,yes,yes,no,300534061750350,Ice Ball,USIABP,UTQ_2022,North
2022-04-09T07:00:54Z,2022,7,0,99.2923,99.2923,72.31373,-155.5475,1026.6,-17.8,-999.0,yes,yes,no,300534061750350,Ice Ball,USIABP,UTQ_2022,North
2022-04-09T08:00:23Z,2022,8,0,99.3336,99.3336,72.31397,-155.54083,1027.1,-18.4,-999.0,yes,yes,no,300534061750350,Ice Ball,USIABP,UTQ_2022,North
2022-04-09T09:00:25Z,2022,9,0,99.3753,99.3753,72.31451,-155.53508,1028.0,-18.9,-999.0,yes,yes,no,300534061750350,Ice Ball,USIABP,UTQ_2022,North
2022-04-09T10:00:54Z,2022,10,0,99.4173,99.4173,72.31497,-155.52932,1028.9,-19.25,-999.0,yes,yes,no,300534061750350,Ice Ball,USIABP,UTQ_2022,North
2022-04-09T11:00:23Z,2022,11,0,99.4586,99.4586,72.3154,-155.52382,1029.6,-19.8,-999.0,yes,yes,no,300534061750350,Ice Ball,USIABP,UTQ_2022,North
2022-04-09T12:00:25Z,2022,12,0,99.5003,99.5003,72.31597,-155.51825,1030.1,-20.35,-999.0,yes,yes,no,300534061750350,Ice Ball,USIABP,UTQ_2022,North
2022-04-09T13:00:54Z,2022,13,0,99.5423,99.5423,72.31664,-155.51334,1030.5,-21.3,-999.0,yes,yes,no,300534061750350,Ice Ball,USIABP,UTQ_2022,North
2022-04-09T14:00:23Z,2022,14,0,99.5836,99.5836,72.31727,-155.50979,1030.9,-22.2,-999.0,yes,yes,no,300534061750350,Ice Ball,USIABP,UTQ_2022,North
2022-04-09T15:00:25Z,2022,15,0,99.6253,99.6253,72.3179,-155.50724,1031.1,-22.9,-999.0,yes,yes,no,300534061750350,Ice Ball,USIABP,UTQ_2022,North
2022-04-09T16:00:54Z,2022,16,0,99.6673,99.6673,72.31852,-155.50499,1031.5,-23.1,-999.0,yes,yes,no,300534061750350,Ice Ball,USIABP,UTQ_2022,North
2022-04-09T17:00:23Z,2022,17,0,99.7086,99.7086,72.31915,-155.50322,1031.8,-21.5,-999.0,yes,yes,no,300534061750350,Ice Ball,USIABP,UTQ_2022,North
2022-04-09T18:00:25Z,2022,18,0,99.7503,99.7503,72.31982,-155.5015,1031.9,-19.15,-999.0,yes,yes,no,300534061750350,Ice Ball,USIABP,UTQ_2022,North
2022-04-09T19:00:28Z,2022,19,0,99.792,99.792,72.32052,-155.49987,1032.3,-15.75,-999.0,yes,yes,no,300534061750350,Ice Ball,USIABP,UTQ_2022,North
2022-04-09T20:00:57Z,2022,20,0,99.834,99.834,72.3211,-155.49868,1032.6,-11.15,-999.0,yes,yes,no,300534061750350,Ice Ball,USIABP,UTQ_2022,North
2022-04-09T21:00:25Z,2022,21,0,99.8753,99.8753,72.32169,-155.49774,1032.8,-8.7,-999.0,yes,yes,no,300534061750350,Ice Ball,USIABP,UTQ_2022,North
2022-04-09T22:00:28Z,2022,22,0,99.917,99.917,72.32259,-155.49647,1032.9,-6.8,-999.0,yes,yes,no,300534061750350,Ice Ball,USIABP,UTQ_2022,North
2022-04-09T23:00:23Z,2022,23,0,99.9586,99.9586,72.32327,-155.49573,1033.1,-6.4,-999.0,yes,yes,no,300534061750350,Ice Ball,USIABP,UTQ_2022,North
2022-04-10T00:00:51Z,2022,0,0,100.0006,100.0006,72.32394,-155.49548,1033.1,-9.4,-999.0,yes,yes,no,300534061750350,Ice Ball,USIABP,UTQ_2022,North
2022-04-10T01:00:28Z,2022,1,0,100.042,100.042,72.32465,-155.49572,1033.0,-13.85,-999.0,yes,yes,no,300534061750350,Ice Ball,USIABP,UTQ_2022,North
2022-04-10T02:00:23Z,2022,2,0,100.0836,100.0836,72.32541,-155.49646,1033.2,-16.65,-999.0,yes,yes,no,300534061750350,Ice Ball,USIABP,UTQ_2022,North